Regional Weather Roundup
Issued by NWS

Home | Current Version | Previous Version | Text Only | Print | Product List | Glossary Off
Versions: 1 2 3 4 5 6 7 8 9 10 11 12 13 14 15 16 17 18 19 20 21 22 23 24 25 26 27 28 29 30 31 32 33 34 35 36 37 38 39 40 41 42 43 44 45 46 47 48 49 50

000
ASUS43 KDTX 020310
RWRMI
MICHIGAN HOURLY REGIONAL WEATHER ROUNDUP
NATIONAL WEATHER SERVICE DETROIT/PONTIAC MI
1100 PM EDT SUN MAY 01 2016

NOTE: "FAIR" INDICATES FEW OR NO CLOUDS BELOW 12,000 FEET WITH NO
SIGNIFICANT WEATHER AND/OR OBSTRUCTION TO VISIBILITY.

MIZ047>049-052>055-059>063-066>070-074>076-081>083-020400-
SOUTHEAST LOWER MICHIGAN

CITY           SKY/WX    TMP DP  RH WIND       PRES   REMARKS
ADRIAN         CLOUDY    49  45  86 E14       29.98S
ALMA           PTCLDY    43  39  85 NE8       30.03F
ANN ARBOR      CLOUDY    47  43  86 NE9       30.00R
BAD AXE        CLOUDY    43  40  88 NE8       30.05F
CARO           PTCLDY    43  39  86 NE3       30.04F
DETROIT CITY   CLOUDY    48  44  86 NE10      30.00F
DETROIT        CLOUDY    49  44  83 N9        30.00R
FLINT          CLOUDY    48  39  71 NE12G20   30.03F
GROSSE ILE     CLOUDY    50  46  87 N8        29.98R
HILLSDALE      CLOUDY    47  47 100 E9        29.97R
HOWELL         MOCLDY    45  41  86 NE7       29.99F

CITY           SKY/WX    TMP DP  RH WIND       PRES   REMARKS
JACKSON        CLOUDY    46 N/A N/A NE12      29.98F
LAMBERTVILLE   CLOUDY    51  47  86 E5        29.98S
LANSING        PTCLDY    44  38  79 NE9       30.00F
LAPEER         CLOUDY    44  40  86 NE5       30.03S
MASON          CLOUDY    45  41  87 NE10      29.99F
MONROE         CLOUDY    50  47  90 NE7       29.99R
MT. CLEMENS    CLOUDY    46  46 100 N10       29.99F
PONTIAC        CLOUDY    45  41  86 N12       30.00F
PORT HOPE        N/A     42  39  89 N6        30.06F
PORT HURON     CLOUDY    45  41  87 N6        30.02F
TRI CITIES     CLOUDY    46  40  79 NE12      30.06F
MIDLAND        CLOUDY    45  37  73 NE5       30.06F
TROY           CLOUDY    47  44  87 NE8       30.02S
SAGINAW HB     CLOUDY    45  39  81 NE8       30.04F
$$
MIZ043>046-050>051-056>058-064>065-071>073-077>080-020400-
SOUTHWEST LOWER MICHIGAN

CITY           SKY/WX    TMP DP  RH WIND       PRES   REMARKS
BATTLE CREEK   CLOUDY    46  43  89 NE14      29.97F
BENTON HARBOR  LGT RAIN  49  45  86 NE9       29.95F FOG
BIG RAPIDS     CLOUDY    48  33  56 NE6       30.03F
COLDWATER      CLOUDY    49  47  93 NE13G18   29.97R
FREMONT        CLOUDY    48  35  59 E13       30.02F
HOLLAND        MOCLDY    49  37  63 E15G21    29.98F
GRAND RAPIDS   CLOUDY    47  37  68 NE15      29.99F
IONIA          MOCLDY    44  38  78 NE10      30.00F
KALAMAZOO      CLOUDY    47  43  86 NE12G18   29.95F
LUDINGTON      CLOUDY    47  40  75 CALM      30.06R
MARSHALL       CLOUDY    46  43  89 NE5       29.97S
MOUNT PLEASANT CLOUDY    46  36  68 NE9       30.04F
MUSKEGON       MOCLDY    50  35  56 NE14G23   30.00F
SOUTH HAVEN    RAIN      47  44  89 E8G17     29.99R
$$
MIZ016>042-020400-
NORTHERN LOWER MICHIGAN

CITY           SKY/WX    TMP DP  RH WIND       PRES   REMARKS
ALPENA         CLOUDY    45  34  65 E3        30.12S
BEAVER ISLAND  CLOUDY    45  35  68 NW3       30.11F
BELLAIRE       CLOUDY    46  36  67 CALM      30.09S
CADILLAC       CLOUDY    45  35  66 NE3       30.05F
CHARLEVOIX     CLOUDY    47  34  62 N6        30.13S
FRANKFORT      CLOUDY    48  38  68 N5        30.08S
GAYLORD        MOCLDY    48  32  53 CALM      30.09R
GRAYLING       MOCLDY    45  34  65 NE5       30.09F
HARBOR SPRINGS CLOUDY    50  31  47 N3        30.10S
HOUGHTON LAKE  CLEAR     42  32  67 NE6       30.08F
MANISTEE       CLOUDY    52  37  58 N6        30.07S
OSCODA         CLOUDY    38  33  79 CALM      30.10S
PELLSTON       CLOUDY    48  35  60 CALM      30.11S
ROGERS CITY    CLOUDY    47  32  55 S3        30.13S
TRAVERSE CITY  MOCLDY    47  38  71 CALM      30.08S
$$
MIZ007>008-015-020400-
EASTERN UPPER MICHIGAN

CITY           SKY/WX    TMP DP  RH WIND       PRES   REMARKS
KINROSS          N/A     48  34  57 CALM      30.09S
MACKINAC ISLAN CLOUDY    48  33  54 W5        30.09F
NEWBERRY       CLEAR     45  32  61 NW5       30.11S
S. S. MARIE    CLOUDY    54  32  43 NE3       30.08S
MUNISING         N/A     40  36  86 NW3       30.14S
$$
MIZ004>006-011>014-085-020400-
CENTRAL UPPER MICHIGAN

CITY           SKY/WX    TMP DP  RH WIND       PRES   REMARKS
MANISTIQUE     CLEAR     42  33  70 N6        30.11F
ESCANABA       CLEAR     46  32  57 N3        30.13S
MENOMINEE      CLEAR     45  34  65 CALM      30.11S
SAWYER-GWINN   CLEAR     35  30  81 N5        30.12S WCI  31
$$
MIZ001>003-009>011-084-020400-
WESTERN UPPER MICHIGAN

CITY           SKY/WX    TMP DP  RH WIND       PRES   REMARKS
IRON MOUNTAIN  CLEAR     45  28  51 NE3       30.12S
HOUGHTON       CLEAR     37  31  78 CALM      30.14F
COPPER HARBOR    N/A     38  35  89 W5        30.16S WCI  34
IRONWOOD         N/A     36  34  93 CALM      30.13S
$$

ABBREVIATIONS USED IN REMARKS
   TC - TEMPERATURE IN CELSIUS
  WCI - WIND CHILL INDEX
   HX - HEAT INDEX
  VSB - VISIBILITY





USA.gov is the U.S. government's official web portal to all federal, state and local government web resources and services.